Regional Weather Roundup
Issued by NWS Tiyan, Guam

Home | Current Version | Previous Version | Text Only | Print | Product List | Glossary On
Versions: 1 2 3 4 5 6 7 8 9 10 11 12 13 14 15 16 17 18 19 20 21 22 23 24 25 26 27 28 29 30 31 32 33 34 35 36 37 38 39 40 41 42 43 44 45 46 47 48 49 50
000
ASGM40 PGUM 180612
RWRGUM
WEATHER ROUNDUP FOR THE MARIANAS
NATIONAL WEATHER SERVICE TIYAN GU
400 PM CHST MON DEC 18 2017

GUZ001>004-180700-
MARIANA ISLANDS-

CITY           SKY/WX    TMP DP  RH WIND       PRES   REMARKS
GUAM AIRPORT   PTSUNNY   81  79  94 NE15G28   29.82S
ANDERSEN AFB   DRIZZLE   79  75  89 E17G25    29.83S
ROTA AIRPORT   LGT RAIN  79  77  94 E14       29.83S
TINIAN AP      LGT RAIN  82  79  89 NE15      29.82R HX  93
SAIPAN AP      CLOUDY    84  77  79 NE18G29   29.83R HX  94

$$




USA.gov is the U.S. government's official web portal to all federal, state and local government web resources and services.